FW7674 Weather Reports


Display with metric or nautical units.
time (UTC)temp
F
wind
direction
speed
MPH
gust
MPH
rain 1hr
in
rain 24hr
in
rain mn
in
humidity
%
barometer
mb
20260502151756 80 185 2.0 2.0 0.00 0.00 0.00 20 1014.6
20260502151253 81 77 3.0 3.0 0.00 0.00 0.00 20 1014.3
20260502150752 80 109 1.0 2.0 0.00 0.00 0.00 20 1014.4
20260502150248 80 77 1.0 1.0 0.00 0.00 0.00 21 1014.5
20260502130630 67 324 0.0 0.0 0.00 0.00 0.00 34 1013.1
20260502130128 66 323 0.0 0.0 0.00 0.00 0.00 34 1013.2
20260502123614 65 304 0.0 0.0 0.00 0.00 0.00 40 1012.8
20260502123110 64 321 1.0 1.0 0.00 0.00 0.00 41 1012.6
20260502122607 64 349 1.0 1.0 0.00 0.00 0.00 40 1012.8
20260502122103 64 311 1.0 1.0 0.00 0.00 0.00 38 1012.6
20260502121600 64 200 1.0 1.0 0.00 0.00 0.00 38 1012.5
20260502121053 64 281 0.0 0.0 0.00 0.00 0.00 37 1012.5
20260502120548 64 291 0.0 0.0 0.00 0.00 0.00 37 1012.5
20260502115544 65 282 0.0 0.0 0.00 0.00 0.00 36 1012.4
20260502115039 65 306 0.0 0.0 0.00 0.00 0.00 34 1012.4
20260502114536 65 302 0.0 0.0 0.00 0.00 0.00 35 1012.2
20260502114033 65 268 0.0 0.0 0.00 0.00 0.00 36 1012.2
20260502113531 66 245 1.0 1.0 0.00 0.00 0.00 36 1012.3
20260502113029 66 257 0.0 0.0 0.00 0.00 0.00 37 1012.2
20260502112526 66 287 0.0 0.0 0.00 0.00 0.00 36 1012.2
20260502112024 66 288 0.0 0.0 0.00 0.00 0.00 36 1012.2
20260502111521 67 297 0.0 0.0 0.00 0.00 0.00 36 1012.0
20260502111019 67 294 0.0 0.0 0.00 0.00 0.00 36 1012.0
20260502110516 68 300 0.0 0.0 0.00 0.00 0.00 34 1012.0
20260502110014 68 298 0.0 0.0 0.00 0.00 0.00 32 1012.2
20260502105511 68 326 1.0 1.0 0.00 0.00 0.00 34 1012.2
20260502105008 68 325 0.0 0.0 0.00 0.00 0.00 34 1012.2
20260502104505 68 299 0.0 0.0 0.00 0.00 0.00 33 1012.4
20260502104003 68 286 0.0 1.0 0.00 0.00 0.00 33 1011.9
20260502103500 68 302 0.0 0.0 0.00 0.00 0.00 32 1012.0
20260502102956 69 304 0.0 1.0 0.00 0.00 0.00 32 1012.0
20260502102454 69 294 0.0 0.0 0.00 0.00 0.00 32 1011.9
20260502101950 69 288 0.0 0.0 0.00 0.00 0.00 32 1011.8
20260502101449 70 298 0.0 0.0 0.00 0.00 0.00 30 1011.9
20260502100947 70 308 0.0 0.0 0.00 0.00 0.00 30 1011.9
20260502100446 70 327 0.0 0.0 0.00 0.00 0.00 31 1011.8
20260502091414 71 301 0.0 1.0 0.00 0.00 0.00 26 1011.7
20260502090911 72 312 0.0 0.0 0.00 0.00 0.00 27 1011.7
20260502090408 72 291 0.0 1.0 0.00 0.00 0.00 26 1011.7
20260502071303 71 348 0.0 1.0 0.00 0.00 0.00 30 1011.1
20260502070801 71 315 1.0 2.0 0.00 0.00 0.00 33 1011.0
20260502070258 71 309 2.0 2.0 0.00 0.00 0.00 31 1011.1
20260502065757 70 311 0.0 0.0 0.00 0.00 0.00 30 1010.9
20260502065255 70 294 0.0 0.0 0.00 0.00 0.00 30 1010.8
20260502064753 70 281 0.0 0.0 0.00 0.00 0.00 30 1011.0
20260502064250 71 282 0.0 0.0 0.00 0.00 0.00 30 1010.8
20260502063747 72 262 0.0 0.0 0.00 0.00 0.00 29 1010.9
20260502063245 72 294 0.0 0.0 0.00 0.00 0.00 28 1010.9
20260502062742 73 329 1.0 1.0 0.00 0.00 0.00 27 1010.9
20260502062240 73 287 0.0 0.0 0.00 0.00 0.00 27 1010.6
20260502061738 73 285 0.0 0.0 0.00 0.00 0.00 26 1010.7
20260502061236 74 300 0.0 0.0 0.00 0.00 0.00 26 1010.6
20260502060730 74 264 0.0 0.0 0.00 0.00 0.00 25 1010.5
20260502060226 73 236 1.0 1.0 0.00 0.00 0.00 26 1010.5
20260502055725 74 294 0.0 0.0 0.00 0.00 0.00 27 1010.7
20260502055222 74 273 0.0 0.0 0.00 0.00 0.00 26 1010.5
20260502054721 74 220 1.0 1.0 0.00 0.00 0.00 25 1010.5
20260502054218 73 271 0.0 0.0 0.00 0.00 0.00 26 1010.4
20260502053716 74 294 0.0 0.0 0.00 0.00 0.00 29 1010.6
20260502053213 73 308 1.0 1.0 0.00 0.00 0.00 28 1010.3
20260502052711 73 280 0.0 0.0 0.00 0.00 0.00 27 1010.3
20260502052209 74 281 0.0 0.0 0.00 0.00 0.00 28 1010.2
20260502051706 74 279 0.0 0.0 0.00 0.00 0.00 26 1010.3
20260502051205 75 275 0.0 0.0 0.00 0.00 0.00 24 1010.1
20260502050700 75 287 0.0 0.0 0.00 0.00 0.00 24 1010.3
20260502050157 76 283 0.0 0.0 0.00 0.00 0.00 24 1010.2
20260502045653 76 286 0.0 0.0 0.00 0.00 0.00 23 1010.1
20260502045151 75 271 0.0 0.0 0.00 0.00 0.00 24 1010.1
20260502044647 75 288 0.0 0.0 0.00 0.00 0.00 25 1010.1
20260502044143 75 272 0.0 0.0 0.00 0.00 0.00 24 1010.2
20260502043642 76 269 0.0 0.0 0.00 0.00 0.00 23 1010.0
20260502043139 77 256 0.0 0.0 0.00 0.00 0.00 23 1010.0
20260502042638 77 272 0.0 0.0 0.00 0.00 0.00 23 1010.0
20260502042135 77 278 0.0 0.0 0.00 0.00 0.00 23 1010.0
20260502041633 76 261 0.0 0.0 0.00 0.00 0.00 22 1009.8
20260502041130 77 267 0.0 0.0 0.00 0.00 0.00 23 1010.0
20260502040627 78 276 0.0 0.0 0.00 0.00 0.00 22 1009.9
20260502040124 79 268 0.0 0.0 0.00 0.00 0.00 22 1009.8
20260502035620 80 262 0.0 0.0 0.00 0.00 0.00 21 1009.9
20260502035117 80 245 0.0 0.0 0.00 0.00 0.00 21 1009.5
20260502034615 80 236 0.0 0.0 0.00 0.00 0.00 21 1009.6
20260502034113 81 266 0.0 0.0 0.00 0.00 0.00 21 1009.6
20260502033611 81 215 1.0 1.0 0.00 0.00 0.00 20 1009.7
20260502033108 81 160 2.0 2.0 0.00 0.00 0.00 20 1009.6
20260502032604 82 173 1.0 2.0 0.00 0.00 0.00 20 1009.5
20260502032100 82 215 1.0 1.0 0.00 0.00 0.00 20 1009.4
20260502031558 82 233 1.0 1.0 0.00 0.00 0.00 20 1009.1
20260502031056 83 217 1.0 1.0 0.00 0.00 0.00 19 1009.3
20260502030555 83 227 1.0 2.0 0.00 0.00 0.00 19 1009.1
20260502030052 83 212 2.0 2.0 0.00 0.00 0.00 19 1009.1
20260502025549 84 213 3.0 3.0 0.00 0.00 0.00 18 1008.9
20260502025048 84 228 3.0 4.0 0.00 0.00 0.00 18 1008.8
20260502024545 84 215 2.0 2.0 0.00 0.00 0.00 18 1008.9
20260502024043 84 181 4.0 6.0 0.00 0.00 0.00 18 1008.6
20260502023540 84 235 2.0 4.0 0.00 0.00 0.00 18 1008.7
20260502023037 84 183 1.0 1.0 0.00 0.00 0.00 18 1008.7
20260502022534 85 208 2.0 3.0 0.00 0.00 0.00 18 1008.6
20260502022032 85 238 1.0 1.0 0.00 0.00 0.00 18 1008.5
20260502021529 85 170 2.0 3.0 0.00 0.00 0.00 18 1008.6
20260502021026 85 237 4.0 4.0 0.00 0.00 0.00 18 1008.5
20260502020523 85 254 3.0 4.0 0.00 0.00 0.00 18 1008.5
20260502020020 86 248 2.0 2.0 0.00 0.00 0.00 19 1008.4
20260502015518 86 189 3.0 3.0 0.00 0.00 0.00 18 1008.6
20260502015014 86 242 4.0 6.0 0.00 0.00 0.00 17 1008.4
20260502014511 87 263 1.0 1.0 0.00 0.00 0.00 17 1008.3
20260502014008 87 250 1.0 1.0 0.00 0.00 0.00 17 1008.4
20260502013503 87 214 4.0 6.0 0.00 0.00 0.00 18 1008.5
20260502013000 87 246 1.0 2.0 0.00 0.00 0.00 18 1008.3
20260502012457 87 213 3.0 3.0 0.00 0.00 0.00 18 1008.4
20260502011955 88 229 5.0 6.0 0.00 0.00 0.00 17 1008.4
20260502011451 88 254 2.0 2.0 0.00 0.00 0.00 17 1008.2
20260502010948 88 231 2.0 3.0 0.00 0.00 0.00 17 1008.6
20260502010445 88 271 0.0 0.0 0.00 0.00 0.00 17 1008.5
20260502005941 88 170 3.0 4.0 0.00 0.00 0.00 17 1008.4
20260502005439 88 189 2.0 3.0 0.00 0.00 0.00 17 1008.6
20260502004937 88 233 3.0 3.0 0.00 0.00 0.00 17 1008.5
20260502004432 88 233 4.0 4.0 0.00 0.00 0.00 18 1008.4
20260502003929 88 211 3.0 3.0 0.00 0.00 0.00 18 1008.6
20260502003427 87 176 2.0 3.0 0.00 0.00 0.00 19 1008.4
20260502002923 88 240 2.0 2.0 0.00 0.00 0.00 19 1008.6
20260502002420 88 220 3.0 3.0 0.00 0.00 0.00 19 1008.7
20260502001917 89 192 3.0 3.0 0.00 0.00 0.00 19 1008.6
20260502001415 89 219 3.0 3.0 0.00 0.00 0.00 19 1008.6
20260502000913 88 232 3.0 4.0 0.00 0.00 0.00 19 1008.8
20260502000411 89 249 5.0 7.0 0.00 0.00 0.00 20 1008.6
20260501235906 88 230 4.0 6.0 0.00 0.00 0.00 19 1008.7
20260501235402 88 199 4.0 6.0 0.00 0.00 0.00 20 1008.7
20260501234857 89 278 1.0 1.0 0.00 0.00 0.00 20 1008.7
20260501234355 89 225 3.0 3.0 0.00 0.00 0.00 20 1008.8
20260501233853 88 212 6.0 8.0 0.00 0.00 0.00 20 1008.7
20260501233350 89 248 2.0 3.0 0.00 0.00 0.00 19 1008.9
20260501232846 87 344 2.0 3.0 0.00 0.00 0.00 20 1008.8
20260501232344 88 247 5.0 6.0 0.00 0.00 0.00 20 1008.8
20260501231841 89 211 4.0 6.0 0.00 0.00 0.00 20 1008.7
20260501231339 89 173 2.0 3.0 0.00 0.00 0.00 20 1008.8
20260501230837 88 259 4.0 4.0 0.00 0.00 0.00 21 1008.8
20260501230336 88 298 1.0 2.0 0.00 0.00 0.00 21 1008.9
20260501225832 88 233 4.0 4.0 0.00 0.00 0.00 21 1009.0
20260501225330 89 232 2.0 3.0 0.00 0.00 0.00 20 1009.0
20260501224826 87 300 2.0 2.0 0.00 0.00 0.00 20 1009.0
20260501224323 87 240 3.0 3.0 0.00 0.00 0.00 20 1009.1
20260501223820 88 242 4.0 4.0 0.00 0.00 0.00 20 1009.3
20260501223316 88 280 1.0 1.0 0.00 0.00 0.00 20 1009.5
20260501222812 89 15 1.0 2.0 0.00 0.00 0.00 18 1009.6
20260501222309 87 242 1.0 1.0 0.00 0.00 0.00 18 1009.6
20260501221806 88 217 3.0 4.0 0.00 0.00 0.00 18 1009.7
20260501221303 87 248 0.0 1.0 0.00 0.00 0.00 18 1009.9
20260501220801 87 239 3.0 3.0 0.00 0.00 0.00 18 1009.8
20260501220258 86 202 6.0 7.0 0.00 0.00 0.00 18 1009.9
20260501215755 87 210 3.0 4.0 0.00 0.00 0.00 17 1010.1
20260501215250 86 219 5.0 6.0 0.00 0.00 0.00 18 1010.1
20260501214745 87 188 2.0 4.0 0.00 0.00 0.00 18 1010.1
20260501214242 86 279 5.0 7.0 0.00 0.00 0.00 19 1010.3
20260501213738 86 280 1.0 1.0 0.00 0.00 0.00 20 1010.2
20260501213234 86 256 5.0 6.0 0.00 0.00 0.00 20 1010.4
20260501212731 87 202 5.0 7.0 0.00 0.00 0.00 20 1010.4
20260501212227 87 299 2.0 2.0 0.00 0.00 0.00 20 1010.6
20260501211724 86 247 5.0 7.0 0.00 0.00 0.00 20 1010.5
20260501211221 86 269 1.0 1.0 0.00 0.00 0.00 21 1010.7
20260501210718 85 281 4.0 4.0 0.00 0.00 0.00 22 1010.8
20260501210215 85 288 4.0 6.0 0.00 0.00 0.00 21 1010.8
20260501205712 84 223 3.0 3.0 0.00 0.00 0.00 22 1010.8
20260501205208 85 141 4.0 6.0 0.00 0.00 0.00 22 1010.9
20260501204706 84 221 4.0 4.0 0.00 0.00 0.00 23 1010.9
20260501204202 85 184 2.0 3.0 0.00 0.00 0.00 22 1011.0
20260501203658 85 173 3.0 6.0 0.00 0.00 0.00 22 1011.0
20260501203156 83 18 2.0 3.0 0.00 0.00 0.00 23 1011.0
20260501202653 83 339 2.0 3.0 0.00 0.00 0.00 22 1011.2
20260501202149 84 271 3.0 4.0 0.00 0.00 0.00 22 1011.2
20260501201647 84 218 3.0 4.0 0.00 0.00 0.00 22 1011.2
20260501201143 83 72 2.0 3.0 0.00 0.00 0.00 23 1011.3
20260501200640 84 157 6.0 8.0 0.00 0.00 0.00 23 1011.4
20260501200137 85 261 2.0 4.0 0.00 0.00 0.00 23 1011.5
20260501195635 82 270 1.0 1.0 0.00 0.00 0.00 24 1011.4
20260501195130 83 68 1.0 2.0 0.00 0.00 0.00 24 1011.3
20260501194626 82 264 2.0 3.0 0.00 0.00 0.00 24 1011.5
20260501194127 84 248 7.0 10.0 0.00 0.00 0.00 24 1011.8
20260501193624 82 293 1.0 2.0 0.00 0.00 0.00 26 1011.8
20260501193123 82 186 0.0 1.0 0.00 0.00 0.00 25 1011.7
20260501192619 82 225 3.0 4.0 0.00 0.00 0.00 26 1011.9
20260501192117 82 145 8.0 9.0 0.00 0.00 0.00 25 1011.8
20260501191614 82 127 4.0 7.0 0.00 0.00 0.00 25 1012.2
20260501191111 83 237 4.0 4.0 0.00 0.00 0.00 25 1012.0
20260501190608 81 211 1.0 1.0 0.00 0.00 0.00 26 1012.2
20260501185559 82 318 1.0 1.0 0.00 0.00 0.00 27 1012.4
20260501185055 82 256 4.0 6.0 0.00 0.00 0.00 28 1012.3
20260501184551 80 283 4.0 6.0 0.00 0.00 0.00 28 1012.6
20260501184046 80 179 4.0 8.0 0.00 0.00 0.00 28 1012.4
20260501183543 80 191 4.0 4.0 0.00 0.00 0.00 27 1012.6
20260501183040 80 191 2.0 4.0 0.00 0.00 0.00 28 1012.4
20260501182536 81 208 5.0 7.0 0.00 0.00 0.00 27 1012.7
20260501182033 80 317 0.0 1.0 0.00 0.00 0.00 29 1012.6
20260501181531 81 222 4.0 6.0 0.00 0.00 0.00 28 1013.1
20260501181027 80 274 2.0 2.0 0.00 0.00 0.00 28 1013.1
20260501180525 79 272 3.0 3.0 0.00 0.00 0.00 29 1013.0
20260501180021 79 245 3.0 4.0 0.00 0.00 0.00 30 1013.1
20260501175518 79 228 3.0 4.0 0.00 0.00 0.00 30 1013.0
20260501175015 80 228 4.0 4.0 0.00 0.00 0.00 28 1013.0
20260501174512 80 260 2.0 3.0 0.00 0.00 0.00 29 1013.1
20260501174010 80 143 3.0 3.0 0.00 0.00 0.00 29 1013.2
20260501173507 80 233 3.0 3.0 0.00 0.00 0.00 30 1013.2
20260501173003 79 204 2.0 4.0 0.00 0.00 0.00 29 1013.3
20260501172458 78 146 5.0 6.0 0.00 0.00 0.00 30 1013.3
20260501171954 78 198 4.0 7.0 0.00 0.00 0.00 31 1013.1
20260501171450 79 207 4.0 4.0 0.00 0.00 0.00 30 1013.1
20260501170947 79 201 2.0 2.0 0.00 0.00 0.00 30 1013.3
20260501170444 78 76 1.0 1.0 0.00 0.00 0.00 30 1013.2
20260501165942 77 194 1.0 1.0 0.00 0.00 0.00 31 1013.2
20260501165439 77 241 2.0 3.0 0.00 0.00 0.00 32 1013.3
20260501164937 77 207 2.0 4.0 0.00 0.00 0.00 31 1013.3
20260501164435 77 233 1.0 1.0 0.00 0.00 0.00 31 1013.1
20260501163931 77 126 1.0 2.0 0.00 0.00 0.00 31 1013.5
20260501163427 77 124 2.0 2.0 0.00 0.00 0.00 31 1013.2
20260501162924 77 245 2.0 3.0 0.00 0.00 0.00 31 1013.1
20260501162420 77 161 3.0 4.0 0.00 0.00 0.00 33 1013.3
20260501161917 76 274 0.0 0.0 0.00 0.00 0.00 33 1013.2
20260501161414 76 249 3.0 4.0 0.00 0.00 0.00 33 1013.4
20260501160911 75 183 1.0 1.0 0.00 0.00 0.00 33 1012.9
20260501160408 76 196 2.0 3.0 0.00 0.00 0.00 33 1013.3
20260501155905 75 286 1.0 2.0 0.00 0.00 0.00 34 1013.2
20260501155402 75 257 3.0 4.0 0.00 0.00 0.00 34 1013.1
20260501154858 76 199 3.0 4.0 0.00 0.00 0.00 33 1013.1
20260501154356 76 231 2.0 2.0 0.00 0.00 0.00 33 1013.1
20260501153853 76 280 2.0 2.0 0.00 0.00 0.00 34 1013.3
20260501153351 76 220 2.0 2.0 0.00 0.00 0.00 33 1013.0
20260501152846 75 317 0.0 0.0 0.00 0.00 0.00 33 1013.0
20260501152344 75 270 3.0 3.0 0.00 0.00 0.00 33 1012.9
20260501151841 76 270 0.0 0.0 0.00 0.00 0.00 33 1012.9